Skip Page Navigation
NASA JPL Caltech
NASA Logo - Jet Propulsion Laboratory + View the NASA Portal
+ Center for Near-Earth Object Studies
JPL Home Earth Solar System Stars & Galaxies Technology
JPL Solar System Dynamics
BODIES ORBITS EPHEMERIDES TOOLS PHYSICAL DATA DISCOVERY FAQ SITE MAP
IMPORTANT: The SSD Announcement email list is now available. Major changes are coming in the near future, including possible hostname and/or URL changes. To be notified of such changes, subscribe to this email list.

Please visit this page for more details.


JPL Small-Body Database Browser
Search: [ help ]  
351370 (2005 EY)
Classification: Apollo [NEO]          SPK-ID: 2351370
Ephemeris | Orbit Diagram | Orbital Elements | Mission Design | Physical Parameters | Discovery Circumstances | Close-Approach Data ]

[ show orbit diagram ]
Orbital Elements at Epoch 2458600.5 (2019-Apr-27.0) TDB
Reference: JPL 38 (heliocentric ecliptic J2000)
 Element Value Uncertainty (1-sigma)   Units 
e .8909450792312289 4.4725e-08  
a 2.517055827349163 5.4701e-08 au
q .2744973238221365 1.1359e-07 au
i 17.24246047231228 1.4808e-05 deg
node 62.42133727988868 2.8195e-05 deg
peri 185.7404191969547 3.1885e-05 deg
M 178.7391950032196 3.408e-05 deg
tp 2457876.305877217836
(2017-May-02.80587722)
0.00011794 TDB
period 1458.605003770343
3.99
4.7548e-05
1.302e-07
d
yr
n .2468111648249096 8.0455e-09 deg/d
Q 4.759614330876189 1.0344e-07 au
  Orbit Determination Parameters
   # obs. used (total)      111  
   data-arc span      4648 days (12.73 yr)  
   first obs. used      2005-03-01  
   last obs. used      2017-11-21  
   planetary ephem.      DE431  
   SB-pert. ephem.      SB431-N16  
   condition code      0  
   norm. resid. RMS      .59592  
   source      ORB  
   producer      Otto Matic  
   solution date      2018-Feb-09 06:32:04  

Additional Information
 Earth MOID = .233855 au 
 Jupiter MOID = .347663 au 
 T_jup = 2.671 
[ show covariance matrix ]

Ephemeris | Orbit Diagram | Orbital Elements | Mission Design | Physical Parameters | Discovery Circumstances | Close-Approach Data ]

Physical Parameter Table
Parameter Symbol Value Units Sigma Reference Notes
absolute magnitude H 17.1   n/a MPO437487  

351370 (2005 EY)          Discovered 2005-Mar-01 by LINEAR at Socorro
Reference: 20130127/Numbers.arcLast Updated: 2013-01-31

[ show close-approach data ]
Ephemeris | Orbit Diagram | Orbital Elements | Mission Design | Physical Parameters | Discovery Circumstances | Close-Approach Data ]
ABOUT SSD CREDITS/AWARDS PRIVACY/COPYRIGHT GLOSSARY LINKS
FirstGov
(server date/time)  
NASA Home Page
Site Manager:   Ryan S. Park
Webmaster  Alan B. Chamberlin